Flag for Norway Weather past 2 weeks in Askim, Norway

Now
27 °F

Chilly.


Feels Like: 27 °F
Forecast: 22 / 37 °F
Wind: 1 mph from North

Location: Rygge

Current Time: Mar 4, 2015 at 4:09:29 AM

Latest Report: Mar 4, 2015 at 3:50 AM


Visibility: N/A

Pressure: 29.65 "Hg

Humidity: 86%

Dew point: 23 °F

Location of AskimLocation

Historic Weather in Askim — Graph

°F

Askim temperature yesterday

Maximum temperature yesterday: 43 °F (at 2:50 PM)
Minimum temperature yesterday: 32 °F (at 10:20 AM)
Average temperature yesterday: 36 °F

Past Weeks' High & Low Weather Summary

 TemperatureHumidityPressure
High45 °F (Feb 18, 7:20 AM)100% (Feb 17, 1:20 PM)30.21 "Hg (Feb 17, 1:20 PM)
Low25 °F (Feb 22, 2:20 AM)42% (Feb 22, 2:20 PM)29.00 "Hg (Feb 23, 12:50 PM)
Average37 °F90%29.55 "Hg
* Reported Feb 17 2:20 AM — Mar 4 2:50 AM, Askim, Weather by CustomWeather, © 2015

Note: Actual official high and low records may vary slightly from our data, if they occured in-between our weather recording intervals... More about our weather records

Advertising

Askim weather history for previous 24 hours

 ConditionsComfort  
Time TempWeatherWind HumidityBarometerVisibility
2:50 AM
Wed, Mar 4
27 °FChilly.2 mph86%29.62 "HgN/A
2:20 AM30 °FChilly.5 mph80%29.62 "HgN/A
1:50 AM30 °FChilly.7 mph80%29.62 "HgN/A
1:20 AM30 °FChilly.7 mph80%29.62 "HgN/A
12:50 AM32 °FChilly.5 mph80%29.62 "HgN/A
12:20 AM32 °FChilly.7 mph75%29.62 "HgN/A
11:50 PM
Tue, Mar 3
32 °FChilly.6 mph80%29.62 "HgN/A
11:20 PM32 °FClear.5 mph80%29.59 "Hg10 mi
10:50 PM34 °FClear.7 mph75%29.59 "Hg10 mi
10:20 PM34 °FClear.6 mph75%29.59 "Hg10 mi
9:50 PM36 °FClear.7 mph70%29.59 "Hg10 mi
9:20 PM36 °FClear.7 mph70%29.59 "Hg10 mi
8:50 PM36 °FClear.6 mph75%29.59 "Hg10 mi
8:20 PM36 °FPassing clouds.6 mph81%29.56 "HgN/A
7:50 PM36 °FClear.3 mph87%29.56 "Hg10 mi
7:20 PM37 °FClear.6 mph81%29.56 "Hg10 mi
6:50 PM36 °FClear.6 mph93%29.56 "Hg10 mi
6:20 PM37 °FClear.6 mph87%29.56 "Hg10 mi
5:50 PM37 °FClear.5 mph87%29.56 "Hg10 mi
5:20 PM41 °FPassing clouds.7 mph70%29.53 "HgN/A
4:50 PM41 °FSunny.8 mph70%29.53 "Hg10 mi
4:20 PM39 °FScattered showers. Scattered clouds.3 mph75%29.53 "HgN/A
3:50 PM41 °FSnow showers. Scattered clouds.8 mph70%29.53 "HgN/A
3:20 PM43 °FPassing clouds.8 mph61%29.53 "HgN/A
2:50 PM43 °FSunny.9 mph61%29.53 "Hg10 mi
2:20 PM41 °FSunny.8 mph70%29.53 "Hg10 mi
1:50 PM39 °FPassing clouds.5 mph75%29.53 "HgN/A
1:20 PM39 °FPassing clouds.9 mph70%29.53 "HgN/A
12:50 PM39 °FPassing clouds.7 mph65%29.53 "HgN/A
12:20 PM39 °FPassing clouds.6 mph65%29.50 "HgN/A
11:50 AM37 °FPassing clouds.5 mph70%29.50 "HgN/A
11:20 AM37 °FPassing clouds.5 mph75%29.50 "HgN/A
10:50 AM36 °FScattered clouds.5 mph87%29.50 "HgN/A
10:20 AM32 °FPartly sunny.6 mph100%29.47 "HgN/A
9:50 AM36 °FBroken clouds.3 mph93%29.47 "HgN/A
9:20 AM34 °FPartly sunny.1 mph100%29.47 "HgN/A
8:50 AM34 °FPartly sunny.2 mph100%29.45 "HgN/A
8:20 AM34 °FPartly sunny.5 mph100%29.45 "HgN/A
7:50 AM34 °FFog.5 mph100%29.45 "Hg3 mi
7:20 AM34 °FFog.3 mph100%29.45 "Hg1 mi
6:50 AM34 °FPartly cloudy.5 mph100%29.45 "Hg2 mi
6:20 AM34 °FPartly cloudy.2 mph100%29.45 "Hg6 mi
5:50 AM34 °FMostly cloudy.3 mph100%29.42 "HgN/A
5:20 AM36 °FPartly cloudy.2 mph93%29.42 "HgN/A
4:50 AM36 °FLow clouds.3 mph93%29.42 "Hg4 mi
4:20 AM36 °FLow clouds.3 mph93%29.42 "HgN/A
Weather by CustomWeather, © 2015

See weather overviewHow to use our weather pages